Bend, OR

12:09 PM PST on February 14, 2016 (GMT -0800)
Bend Municipal

Weather History for KBDN - February, 2013

Change the Weather History Date:

Friday, February 22, 2013

  Actual Average (KRDM) Record (KRDM)
Temperature  
Mean Temperature 36 °F 36 °F  
Max Temperature 44 °F 48 °F 69 °F (1990)
Min Temperature 28 °F 24 °F 12 °F (2010)
Degree Days  
Heating Degree Days 29 29  
Month to date heating degree days 663  
Since 1 July heating degree days 4503  
Cooling Degree Days 0 0  
Month to date cooling degree days 0  
Year to date cooling degree days 0  
Moisture  
Dew Point 20 °F    
Average Humidity 53    
Maximum Humidity 75    
Minimum Humidity 31    
Precipitation  
Precipitation 1.07 in 0.02 in 0.35 in (1952)
Month to date precipitation 0.52  
Year to date precipitation 1.49  
Sea Level Pressure  
Sea Level Pressure 29.97 in    
Wind  
Wind Speed 14 mph (SW)    
Max Wind Speed 30 mph    
Max Gust Speed 39 mph    
Visibility 10 miles    
Events Rain , Snow    
T = Trace of Precipitation, MM = Missing Value Source: NWS Daily Summary

Daily Weather History Graph

Daily Weather History Graph

Search for Another Location

Airport or City:

Trip Planner

Search our weather history database for the weather conditions in past years. The results will help you decide how hot, cold, wet, or windy it might be!

Date:

Astronomy

Feb. 22, 2013 Rise Set
Actual Time 6:52 AM PST 5:44 PM PST
Civil Twilight 6:23 AM PST 6:13 PM PST
Nautical Twilight 5:49 AM PST 6:47 PM PST
Astronomical Twilight 5:16 AM PST 7:20 PM PST
Moon 2:57 PM PST (2/22) 4:45 AM PST (2/22)
Length of Visible Light 11h 50m
Length of Day
10h 51m
Waxing Gibbous, 91% of the Moon is Illuminated
Feb 22
Waxing Gibbous
Feb 25
Full
Mar 4
Last Quarter
Mar 11
New
Mar 19
First Quarter

Hourly Weather History & Observations

Time (PST) Temp. Windchill Dew Point Humidity Pressure Visibility Wind Dir Wind Speed Gust Speed Precip Events Conditions
12:15 AM 32.0 °F 25.6 °F 15.8 °F 51% 30.10 in 10.0 mi South 6.9 mph - N/A   Clear
12:35 AM 32.0 °F 24.2 °F 15.8 °F 51% 30.09 in 10.0 mi South 9.2 mph - N/A   Clear
12:55 AM 33.8 °F 25.8 °F 15.8 °F 48% 30.09 in 10.0 mi SSW 10.4 mph - N/A   Clear
1:15 AM 33.8 °F 27.7 °F 15.8 °F 48% 30.10 in 10.0 mi SW 6.9 mph - N/A   Clear
1:35 AM 33.8 °F 27.0 °F 15.8 °F 48% 30.10 in 10.0 mi SSW 8.1 mph - N/A   Clear
1:55 AM 33.8 °F 24.3 °F 15.8 °F 48% 30.08 in 10.0 mi SW 13.8 mph - N/A   Clear
2:15 AM 33.8 °F 25.3 °F 17.6 °F 52% 30.08 in 10.0 mi SW 11.5 mph 18.4 mph N/A   Clear
2:35 AM 33.8 °F 25.8 °F 15.8 °F 48% 30.07 in 10.0 mi SW 10.4 mph - N/A   Clear
2:55 AM 33.8 °F 24.8 °F 15.8 °F 48% 30.07 in 10.0 mi SW 12.7 mph 18.4 mph N/A   Clear
3:15 AM 33.8 °F 23.9 °F 15.8 °F 48% 30.07 in 10.0 mi SW 15.0 mph - N/A   Clear
3:35 AM 35.6 °F 27.5 °F 15.8 °F 44% 30.07 in 10.0 mi SW 11.5 mph 17.3 mph N/A   Partly Cloudy
3:55 AM 35.6 °F 25.9 °F 15.8 °F 44% 30.05 in 10.0 mi SW 16.1 mph 21.9 mph N/A   Clear
4:15 AM 35.6 °F 26.2 °F 15.8 °F 44% 30.06 in 10.0 mi SW 15.0 mph 20.7 mph N/A   Clear
4:35 AM 35.6 °F 25.5 °F 15.8 °F 44% 30.06 in 10.0 mi SW 17.3 mph - N/A   Partly Cloudy
4:55 AM 35.6 °F 26.6 °F 15.8 °F 44% 30.06 in 10.0 mi SW 13.8 mph 20.7 mph N/A   Mostly Cloudy
5:15 AM 35.6 °F 26.2 °F 15.8 °F 44% 30.07 in 10.0 mi SW 15.0 mph 19.6 mph N/A   Mostly Cloudy
5:35 AM 35.6 °F 27.1 °F 15.8 °F 44% 30.06 in 10.0 mi SW 12.7 mph 20.7 mph N/A   Partly Cloudy
5:55 AM 35.6 °F 25.5 °F 17.6 °F 48% 30.06 in 10.0 mi SW 17.3 mph - N/A   Clear
6:15 AM 35.6 °F 26.2 °F 17.6 °F 48% 30.05 in 10.0 mi SSW 15.0 mph 19.6 mph N/A   Partly Cloudy
6:35 AM 35.6 °F 26.6 °F 17.6 °F 48% 30.05 in 10.0 mi SW 13.8 mph 19.6 mph N/A   Mostly Cloudy
6:55 AM 35.6 °F 25.2 °F 15.8 °F 44% 30.05 in 10.0 mi SW 18.4 mph 25.3 mph N/A   Overcast
7:15 AM 35.6 °F 23.7 °F 15.8 °F 44% 30.05 in 10.0 mi SW 24.2 mph 27.6 mph N/A   Overcast
7:35 AM 35.6 °F 24.5 °F 15.8 °F 44% 30.05 in 10.0 mi SSW 20.7 mph 27.6 mph N/A   Mostly Cloudy
7:55 AM 35.6 °F 25.5 °F 15.8 °F 44% 30.05 in 10.0 mi SW 17.3 mph 25.3 mph N/A   Scattered Clouds
8:15 AM 35.6 °F 24.0 °F 15.8 °F 44% 30.04 in 10.0 mi SSW 23.0 mph 31.1 mph N/A   Mostly Cloudy
8:35 AM 35.6 °F 25.5 °F 15.8 °F 44% 30.03 in 10.0 mi SSW 17.3 mph 32.2 mph N/A   Mostly Cloudy
8:55 AM 35.6 °F 23.7 °F 15.8 °F 44% 30.03 in 10.0 mi SSW 24.2 mph 28.8 mph N/A   Overcast
9:15 AM 37.4 °F 26.4 °F 15.8 °F 41% 30.02 in 10.0 mi SW 23.0 mph 29.9 mph N/A   Scattered Clouds
9:35 AM 37.4 °F 25.9 °F 14.0 °F 38% 30.01 in 10.0 mi SSW 25.3 mph 36.8 mph N/A   Clear
9:55 AM 37.4 °F 26.4 °F 14.0 °F 38% 30.01 in 10.0 mi SSW 23.0 mph 32.2 mph N/A   Clear
10:15 AM 37.4 °F 27.2 °F 14.0 °F 38% 30.01 in 10.0 mi SSW 19.6 mph 29.9 mph N/A   Clear
10:35 AM 37.4 °F 26.4 °F 14.0 °F 38% 30.00 in 10.0 mi SW 23.0 mph 29.9 mph N/A   Clear
10:55 AM 37.4 °F 26.4 °F 15.8 °F 41% 30.00 in 10.0 mi SSW 23.0 mph 32.2 mph N/A   Partly Cloudy
11:15 AM 37.4 °F 27.2 °F 15.8 °F 41% 30.00 in 10.0 mi SSW 19.6 mph 28.8 mph N/A   Mostly Cloudy
11:35 AM 39.2 °F 30.5 °F 15.8 °F 39% 29.97 in 10.0 mi SSW 16.1 mph 20.7 mph N/A   Scattered Clouds
11:55 AM 39.2 °F 29.6 °F 17.6 °F 42% 29.97 in 10.0 mi SSW 19.6 mph 25.3 mph N/A   Partly Cloudy
12:15 PM 41.0 °F 33.5 °F 17.6 °F 39% 29.96 in 10.0 mi SSW 13.8 mph 18.4 mph N/A   Clear
12:35 PM 41.0 °F 33.1 °F 17.6 °F 39% 29.94 in 10.0 mi SSW 15.0 mph 21.9 mph N/A   Scattered Clouds
12:55 PM 44.6 °F 35.7 °F 17.6 °F 34% 29.92 in 10.0 mi SW 24.2 mph 39.1 mph N/A   Clear
1:15 PM 44.6 °F 34.7 °F 15.8 °F 31% 29.92 in 8.0 mi WSW 29.9 mph 35.7 mph N/A   Clear
1:35 PM 41.0 °F 31.1 °F 21.2 °F 45% 29.91 in 10.0 mi WSW 23.0 mph 32.2 mph N/A   Clear
1:55 PM 41.0 °F 31.9 °F 21.2 °F 45% 29.92 in 10.0 mi WSW 19.6 mph 33.4 mph N/A   Clear
2:15 PM 39.2 °F 29.8 °F 24.8 °F 56% 29.91 in 10.0 mi SW 18.4 mph 25.3 mph N/A Rain Light Rain
2:35 PM 37.4 °F 28.2 °F 26.6 °F 65% 29.92 in 10.0 mi SW 16.1 mph 26.5 mph N/A Rain Light Rain
2:55 PM 37.4 °F 30.3 °F 26.6 °F 65% 29.89 in 10.0 mi SW 10.4 mph 25.3 mph N/A Rain Light Rain
3:15 PM 37.4 °F 31.4 °F 26.6 °F 65% 29.91 in 10.0 mi WSW 8.1 mph - N/A   Scattered Clouds
3:35 PM 37.4 °F 28.5 °F 28.4 °F 70% 29.93 in 8.0 mi SW 15.0 mph 20.7 mph N/A Rain Light Rain
3:55 PM 37.4 °F 30.3 °F 28.4 °F 70% 29.91 in 9.0 mi SW 10.4 mph - N/A Rain Light Rain
4:15 PM 37.4 °F 30.8 °F 28.4 °F 70% 29.87 in 10.0 mi South 9.2 mph 19.6 mph N/A   Partly Cloudy
4:35 PM 37.4 °F 29.8 °F 28.4 °F 70% 29.86 in 10.0 mi South 11.5 mph 17.3 mph N/A   Partly Cloudy
4:55 PM 37.4 °F 27.2 °F 26.6 °F 65% 29.87 in 10.0 mi SSW 19.6 mph 31.1 mph N/A   Scattered Clouds
5:15 PM 37.4 °F 28.5 °F 26.6 °F 65% 29.86 in 10.0 mi SSW 15.0 mph 25.3 mph N/A   Scattered Clouds
5:35 PM 37.4 °F 28.5 °F 26.6 °F 65% 29.84 in 10.0 mi SSW 15.0 mph 23.0 mph N/A   Partly Cloudy
5:55 PM 37.4 °F 27.5 °F 26.6 °F 65% 29.84 in 10.0 mi SSW 18.4 mph 25.3 mph N/A   Partly Cloudy
6:15 PM 37.4 °F 26.9 °F 26.6 °F 65% 29.84 in 10.0 mi SW 20.7 mph 28.8 mph N/A   Clear
6:35 PM 37.4 °F 27.2 °F 26.6 °F 65% 29.85 in 10.0 mi SW 19.6 mph - N/A Rain Light Rain
6:55 PM 37.4 °F 27.8 °F 26.6 °F 65% 29.85 in 10.0 mi SW 17.3 mph 23.0 mph N/A Rain Light Rain
7:15 PM 35.6 °F 25.5 °F 26.6 °F 70% 29.84 in 10.0 mi SW 17.3 mph 24.2 mph N/A   Partly Cloudy
7:35 PM 35.6 °F 26.6 °F 26.6 °F 70% 29.83 in 10.0 mi SW 13.8 mph 20.7 mph N/A   Clear
7:55 PM 35.6 °F 26.6 °F 26.6 °F 70% 29.84 in 10.0 mi SW 13.8 mph - N/A   Partly Cloudy
8:15 PM 35.6 °F 25.9 °F 26.6 °F 70% 29.88 in 3.0 mi NW 16.1 mph 23.0 mph 0.05 in Rain Light Rain
8:35 PM 32.0 °F 22.1 °F 24.8 °F 75% 29.86 in 5.0 mi West 13.8 mph 19.6 mph 0.46 in Snow Light Snow
8:55 PM 32.0 °F 24.8 °F 19.4 °F 60% 29.87 in 10.0 mi WSW 8.1 mph - 0.46 in   Partly Cloudy
9:15 PM 32.0 °F 26.4 °F 21.2 °F 64% 29.87 in 10.0 mi WSW 5.8 mph - N/A   Clear
9:35 PM 32.0 °F 28.7 °F 15.8 °F 51% 29.89 in 10.0 mi NW 3.5 mph - N/A   Clear
9:55 PM 32.0 °F 22.1 °F 19.4 °F 60% 29.92 in 6.0 mi NW 13.8 mph 19.6 mph N/A Snow Light Snow
10:15 PM 30.2 °F 19.3 °F 23.0 °F 75% 29.94 in 0.8 mi WNW 15.0 mph 20.7 mph 0.52 in Snow Light Snow
10:35 PM 30.2 °F 20.2 °F 23.0 °F 75% 29.94 in 1.8 mi WNW 12.7 mph 20.7 mph 0.61 in Snow Light Snow
10:55 PM 28.4 °F 18.0 °F 21.2 °F 74% 29.94 in 9.0 mi NW 12.7 mph 19.6 mph 0.61 in Rain Light Freezing Rain
11:15 PM 28.4 °F 18.0 °F 19.4 °F 69% 29.95 in 10.0 mi WNW 12.7 mph 16.1 mph N/A   Clear
11:35 PM 28.4 °F 18.5 °F 19.4 °F 69% 29.97 in 10.0 mi NW 11.5 mph - N/A   Clear
11:55 PM 28.4 °F 21.2 °F 19.4 °F 69% 29.96 in 10.0 mi West 6.9 mph - N/A   Clear